SCP
0 0 0 0 0 0 0 0 1 1 1 0 1 1 1 1 1 1 1 1 1 1 1 1 1 1 1 1 1 2 2 2 2 2 2 2 2 2 2 2 1 1 1
0 0 0 0 0 0 1 1 1 1 1 1 1 1 1 1 1 1 1 1 1 1 1 1 1 1 1 1 2 2 2 2 2 2 2 2 2 2 2 2 2 1 1
1 1 1 1 1 1 1 1 1 1 1 1 1 1 1 1 2 1 1 1 1 2 2 1 1 1 1 1 2 2 2 2 2 2 2 2 1 1 1 2 2 2 2
1 1 1 1 1 1 1 1 1 1 1 2 2 2 2 2 2 2 2 2 2 2 1 1 1 1 1 1 1 1 2 2 2 2 2 2 1 1 1 1 1 1 2
1 1 1 1 1 1 1 1 1 2 2 2 2 2 2 3 3 3 3 3 2 2 1 1 1 1 1 1 1 1 1 1 1 1 1 1 1 1 1 1 1 1 1
1 1 1 1 1 1 1 2 2 2 3 3 3 2 2 3 3 3 3 3 2 2 1 1 1 1 1 1 1 1 1 1 1 1 1 1 1 1 1 1 1 1 1
1 1 1 1 1 1 2 2 2 3 3 3 2 2 2 2 2 2 2 2 2 2 1 1 1 1 1 1 2 2 2 1 1 1 1 1 1 1 1 1 1 1 1
1 1 1 1 1 1 2 2 2 2 2 2 2 2 2 2 1 1 2 2 2 1 1 1 1 1 1 1 2 2 2 2 1 1 1 1 1 1 1 1 1 1 1
1 1 1 1 1 1 1 2 2 2 1 1 2 2 2 2 1 1 1 1 1 1 1 1 1 1 1 1 2 2 2 2 1 1 1 1 1 1 1 1 1 1 1
1 1 1 1 1 1 1 1 1 1 1 1 1 1 2 2 2 1 1 1 0 1 1 1 1 1 1 2 2 2 2 1 1 1 1 1 1 1 1 1 1 1 1
1 1 1 1 1 1 1 1 1 1 1 1 1 1 1 1 1 1 1 1 0 0 0 1 1 1 1 2 2 3 2 1 1 1 1 1 1 1 1 1 1 1 1
1 1 1 1 1 1 1 1 1 1 1 1 1 1 1 1 1 1 1 1 1 0 0 1 1 1 1 1 2 2 2 1 1 1 1 1 1 1 1 1 1 1 1
1 1 1 1 1 1 1 1 1 1 1 1 1 1 1 1 1 1 1 1 1 1 0 0 1 1 1 1 1 2 2 1 1 1 2 1 1 1 1 1 1 1 1
2 2 2 2 2 2 2 2 1 1 1 1 1 1 1 1 1 1 1 1 1 1 0 0 1 1 1 1 1 1 1 1 1 1 1 1 1 1 1 1 1 1 1
2 2 1 2 2 2 2 2 1 1 2 2 2 2 1 1 1 1 1 1 1 1 1 0 1 1 1 1 1 1 1 1 1 1 1 1 1 1 1 1 1 1 1
2 2 2 2 2 3 3 3 2 2 2 2 2 2 2 1 1 1 1 1 1 1 1 1 1 1 1 1 1 1 1 1 1 1 0 0 0 1 1 1 0 0 0
2 3 3 3 3 3 4 4 4 3 3 3 3 2 2 2 1 1 1 1 1 1 1 1 1 1 1 1 1 1 1 1 1 1 0 0 0 0 0 0 0 0 0
3 3 3 3 3 3 4 4 4 4 4 4 4 3 3 3 2 2 1 1 1 1 1 1 1 1 1 1 1 0 1 1 1 1 1 0 0 0 0 0 0 0 0
3 3 3 3 2 2 3 3 4 4 4 4 5 4 4 4 3 2 2 1 1 1 1 1 1 1 1 1 0 0 1 1 1 1 1 1 1 0 0 0 0 0 0
4 4 3 3 3 3 3 3 4 4 5 5 6 6 5 5 4 3 2 2 2 1 1 1 1 1 1 1 1 0 0 0 1 1 1 1 1 0 0 0 0 0 0
5 5 5 4 4 4 4 4 5 5 5 6 6 7 7 6 4 3 3 3 3 2 2 2 1 1 1 1 1 1 1 1 1 1 1 1 0 0 0 0 0 0 0
6 6 6 6 6 5 5 5 5 6 6 6 7 8 8 7 5 3 3 3 3 3 3 3 2 1 1 1 1 1 1 1 1 1 1 1 0 0 0 0 0 0 0
5 6 6 6 6 6 5 4 5 6 7 7 7 7 7 7 6 4 3 2 3 3 3 3 3 2 2 1 1 1 1 1 1 1 1 1 1 1 1 0 0 0 0
5 5 6 6 6 5 5 4 4 5 7 7 7 6 5 5 5 4 3 3 3 3 3 3 3 3 2 2 1 1 1 1 1 1 1 1 1 1 1 1 0 0 0
5 5 5 5 5 5 4 3 3 5 6 6 6 5 4 4 4 3 4 4 3 3 3 2 2 2 1 1 1 1 1 2 2 1 1 1 1 1 1 1 0 0 0
4 4 4 4 5 4 4 3 3 5 5 5 5 4 4 4 3 3 4 4 3 3 3 3 2 1 1 1 1 1 2 2 2 2 1 1 1 1 0 0 0 0 0
Wind_Speed
3 3 2 2 2 2 2 2 2 2 2 2 2 4 3 4 4 4 3 10 10 10 11 10 10 10 9 9 8 8 8 9 9 8 8 9 9 10 10 10 10 9 9
4 3 2 2 2 2 2 2 3 2 2 2 2 3 3 3 4 4 3 6 10 10 10 10 10 10 10 9 9 8 8 8 8 8 9 9 9 9 10 11 10 10 9
4 3 3 2 1 2 2 2 2 2 2 2 2 2 2 3 4 4 4 3 4 9 10 10 9 10 10 9 9 9 8 8 8 9 9 9 8 9 10 10 11 10 9
4 3 2 2 2 2 2 2 2 2 1 1 1 1 2 2 4 4 4 4 4 4 7 11 10 9 10 9 9 8 8 8 8 9 9 9 9 9 9 9 10 10 10
4 3 2 2 2 2 1 2 2 2 2 1 1 1 1 2 3 4 5 6 5 5 4 7 10 10 10 10 9 8 8 8 8 9 9 10 10 10 9 10 10 10 10
4 4 3 3 2 2 2 2 2 1 1 2 1 0 1 2 2 3 5 5 5 6 5 5 5 7 10 10 9 9 9 9 9 9 9 10 11 10 10 10 10 10 10
4 4 3 3 3 3 3 3 2 2 1 1 2 1 2 2 2 3 3 3 4 5 5 5 4 4 4 8 9 9 9 9 9 9 9 10 10 10 10 10 10 10 9
4 4 4 3 3 2 2 2 2 1 1 2 2 1 1 3 2 2 2 3 4 3 5 6 5 5 4 3 5 9 8 8 8 8 7 8 8 8 8 9 10 10 10
4 3 4 3 3 3 3 3 3 3 2 1 1 3 2 2 2 2 2 1 2 2 3 3 5 5 5 4 4 6 9 7 8 8 7 7 6 7 8 9 10 10 10
3 3 3 3 3 3 3 3 3 3 3 2 1 1 2 3 2 2 2 1 2 3 3 4 4 5 5 4 5 6 7 7 8 8 7 7 7 7 7 8 9 9 9
2 3 3 3 3 3 3 3 3 3 3 3 2 1 0 0 1 2 2 2 2 2 3 3 3 3 4 4 4 6 7 7 8 7 7 7 7 8 8 8 8 8 8
1 2 3 3 3 3 3 3 3 3 3 3 2 2 2 2 2 2 2 2 2 3 2 2 3 3 3 3 5 8 8 8 7 7 7 7 7 7 8 9 9 9 9
2 3 3 3 3 3 3 3 3 3 3 3 3 2 2 2 2 2 2 2 2 2 1 2 2 2 3 2 3 6 7 7 7 7 7 6 6 7 7 8 8 8 8
3 3 3 3 3 3 3 2 2 2 2 2 3 2 2 2 2 2 3 2 1 2 2 3 1 2 2 2 4 5 4 7 7 7 6 6 6 6 6 6 6 6 6
3 3 3 3 3 3 3 2 2 2 2 2 2 2 2 2 2 2 2 3 3 2 3 3 2 2 2 2 4 3 3 5 6 6 6 6 6 6 6 6 6 5 6
3 3 2 3 3 2 2 2 2 2 2 1 1 1 1 1 1 1 2 2 2 3 3 2 2 2 2 2 4 3 3 5 6 6 6 6 6 6 6 6 6 6 6
4 3 3 3 3 3 2 2 2 2 2 1 1 1 2 1 1 1 1 1 1 2 2 2 1 1 1 2 2 2 2 2 3 6 7 7 6 6 7 7 7 7 7
4 4 3 3 3 3 3 3 3 2 2 2 2 1 2 1 1 1 1 1 1 2 2 2 1 1 2 2 2 2 2 3 3 6 7 7 7 7 7 6 7 7 7
4 4 4 4 4 4 3 3 3 3 3 2 2 3 3 2 2 2 2 2 1 1 1 2 2 1 1 1 1 1 2 1 3 4 5 6 7 7 7 7 7 7 8
4 4 4 4 4 3 3 3 3 3 2 2 3 3 3 3 3 3 2 2 2 1 1 1 1 1 1 1 1 1 1 2 2 2 3 3 4 6 7 8 8 8 8
5 4 4 4 3 3 3 3 3 3 3 3 2 2 3 3 3 3 2 3 2 2 2 2 2 1 1 1 2 2 2 2 2 1 1 2 2 2 3 6 8 9 8
3 3 4 4 3 3 3 4 4 3 3 3 3 2 2 2 2 3 4 4 4 4 4 3 2 3 3 3 2 2 1 0 2 2 1 2 1 2 3 3 6 8 9
4 3 3 3 3 3 4 4 4 4 3 3 3 3 2 1 2 2 3 3 3 5 6 5 5 5 4 4 3 3 3 3 3 3 1 2 2 3 3 4 7 8 8
3 3 3 3 3 2 2 3 4 3 3 2 3 3 2 2 2 2 1 2 2 3 5 4 5 5 5 5 5 5 4 3 2 2 2 2 2 3 3 3 6 7 8
3 3 3 3 3 1 2 2 3 2 1 2 2 2 3 3 3 2 1 2 3 4 4 5 6 5 5 5 4 2 1 1 2 2 2 2 2 2 2 3 4 7 8
3 3 2 2 3 2 2 2 3 2 2 1 1 1 2 2 2 1 2 2 4 4 3 3 3 3 3 4 4 4 4 3 2 2 3 2 2 1 2 2 2 2 4
Wind_Direction
142 147 156 156 160 156 156 156 157 157 164 167 164 153 150 155 163 168 181 183 183 185 187 191 194 195 194 195 198 203 207 209 209 208 210 211 210 209 208 205 202 204 206
146 146 150 154 166 172 168 158 156 160 166 153 153 157 160 167 173 175 181 188 192 192 194 197 199 198 198 200 204 206 209 213 214 214 214 215 215 217 216 212 207 206 210
146 146 147 155 166 163 147 129 124 128 137 136 139 167 170 175 180 183 181 188 195 200 201 202 202 204 206 208 211 214 217 220 220 218 216 215 217 219 218 217 214 210 207
153 146 149 159 153 128 123 124 122 114 123 135 160 188 181 181 186 183 185 192 194 201 206 205 207 209 213 216 218 219 221 224 225 222 220 218 219 219 218 218 217 211 207
156 151 159 161 145 123 130 152 126 132 139 154 186 202 200 197 195 190 194 203 201 200 203 210 212 213 217 220 221 224 226 226 227 226 226 224 224 222 220 219 217 213 211
159 156 162 165 154 141 144 141 139 128 156 184 187 240 257 231 211 202 202 203 203 204 202 209 210 220 221 223 227 230 234 232 230 231 231 231 230 227 223 220 218 215 213
162 157 160 157 160 162 174 166 146 134 157 143 97 6 327 285 236 223 209 201 206 203 194 201 205 208 223 226 230 234 239 237 233 233 234 236 234 229 224 220 217 212 212
169 167 165 172 176 166 168 164 148 142 192 158 139 110 351 336 314 245 222 210 211 196 202 204 203 204 211 218 226 230 235 238 235 234 233 233 230 224 218 217 213 212 213
175 174 176 178 180 174 185 190 170 159 183 228 167 151 158 233 296 315 275 226 203 203 210 206 207 206 207 214 224 233 235 238 236 235 233 231 224 221 220 219 216 215 215
181 180 175 176 175 172 183 198 179 170 162 193 250 211 187 177 173 299 316 293 231 212 213 211 208 211 210 209 213 216 224 228 234 238 240 237 232 225 224 222 222 221 219
190 182 176 175 181 183 188 188 178 177 171 176 195 211 199 194 163 169 268 296 299 247 221 210 205 212 211 209 209 214 214 219 224 231 234 238 237 231 226 224 224 224 221
201 200 189 188 191 190 191 188 184 181 185 184 192 188 182 189 206 184 222 253 266 268 239 219 214 213 212 207 215 212 208 213 218 227 236 241 242 234 226 224 225 224 226
198 213 202 199 199 197 193 182 176 187 187 187 199 204 200 205 191 176 182 235 259 277 275 255 228 211 214 200 214 210 210 208 215 223 230 237 242 236 226 221 219 222 225
205 201 198 201 199 195 194 182 182 198 186 197 213 209 207 215 188 181 182 177 247 296 281 261 259 220 216 201 213 202 212 208 215 221 226 231 235 229 225 222 222 225 225
202 197 198 201 198 192 188 173 184 203 188 199 211 212 215 228 208 203 187 172 172 222 264 256 258 247 220 204 203 197 211 213 217 222 226 229 226 221 219 222 223 225 225
198 183 186 185 181 181 177 171 191 201 187 214 207 213 242 246 234 219 202 195 180 182 227 249 238 245 225 213 197 198 220 218 220 225 229 226 223 218 218 220 220 221 222
192 187 184 181 181 182 182 176 190 180 192 232 228 207 245 246 243 255 218 198 194 175 221 266 260 255 210 216 199 215 223 221 233 228 227 223 222 221 224 222 220 223 221
195 188 182 182 188 191 187 184 201 204 196 216 225 211 254 243 238 237 213 223 219 196 194 242 268 259 236 213 198 212 222 223 232 236 234 229 226 225 226 224 223 224 220
193 187 181 187 195 197 192 193 194 205 205 209 205 204 225 212 228 227 208 218 232 225 191 197 242 253 270 224 192 249 251 260 248 241 237 235 233 230 227 225 225 223 219
192 194 193 199 198 194 194 197 196 200 206 215 214 215 222 213 221 225 224 223 210 198 192 190 224 250 265 256 148 243 284 283 270 263 253 239 235 237 234 229 227 224 219
191 190 192 199 196 194 206 201 202 205 206 219 232 230 232 227 229 228 231 220 204 202 197 197 222 222 241 201 221 225 235 273 281 254 264 256 240 244 239 235 230 227 220
187 182 191 195 195 208 208 198 193 202 198 206 226 238 239 250 255 253 245 227 206 202 208 207 217 217 231 222 218 206 199 213 282 265 212 266 226 245 249 233 230 223 220
184 186 195 188 195 208 202 198 194 189 199 213 218 224 239 253 246 254 261 255 243 231 217 204 213 225 221 216 201 206 208 209 232 241 183 256 244 249 252 246 229 222 222
181 184 187 183 185 212 197 194 189 190 199 209 212 208 211 241 249 242 248 268 270 261 242 222 221 233 226 216 202 202 209 224 263 254 177 233 248 245 254 246 232 220 219
167 167 167 165 165 199 184 174 174 181 202 229 223 206 213 231 256 248 239 267 283 285 265 242 240 241 242 230 204 171 180 182 264 269 215 207 242 254 258 253 243 226 222
170 160 159 172 172 187 186 169 173 168 184 235 255 237 220 229 256 244 233 247 267 276 287 283 269 267 255 247 223 197 192 195 215 256 230 198 226 206 278 266 244 231 226